Change the Weather History Date:

Saturday, October 29, 2011

  Actual Average Record
Temperature  
Mean Temperature 42 °F -  
Max Temperature 48 °F 43 °F 62 °F (2006)
Min Temperature 35 °F 32 °F 19 °F (1997)
Degree Days  
Heating Degree Days 24    
Moisture  
Dew Point 42 °F    
Average Humidity 96    
Maximum Humidity 100    
Minimum Humidity 87    
Precipitation  
Precipitation 0.00 in 0.04 in - ()
Sea Level Pressure  
Sea Level Pressure 30.34 in    
Wind  
Wind Speed 4 mph ()    
Max Wind Speed 7 mph    
Max Gust Speed -    
Visibility 1.1 miles    
Events Fog    
Averages and records for this station are not official NWS values.
T = Trace of Precipitation, MM = Missing Value Source: Averaged Metar Reports

Daily Weather History Graph

Daily Weather History Graph

Search for Another Location

Airport or City:

Trip Planner

Search our weather history database for the weather conditions in past years. The results will help you decide how hot, cold, wet, or windy it might be!

Date:

Astronomy

Oct. 29, 2011 Rise Set
Actual Time 7:47 AM CEST 5:45 PM CEST
Civil Twilight 7:13 AM CEST 6:19 PM CEST
Nautical Twilight 6:35 AM CEST 6:57 PM CEST
Astronomical Twilight 5:57 AM CEST 7:34 PM CEST
Moon 11:10 AM CEST (10/29) 7:30 PM CEST (10/29)
Length of Visible Light 11h 05m
Length of Day
9h 58m
Waxing Crescent, 10% of the Moon is Illuminated
Oct 29
Waxing Crescent
Nov 2
First Quarter
Nov 10
Full
Nov 18
Last Quarter
Nov 25
New

Hourly Weather History & Observations

Time (CEST) Temp. Windchill Dew Point Humidity Pressure Visibility Wind Dir Wind Speed Gust Speed Precip Events Conditions
12:00 AM 42.8 °F 39.3 °F 41.0 °F 93% 30.36 in 4.3 mi South 5.8 mph - N/A   Unknown
12:30 AM 41.0 °F 37.1 °F 41.0 °F 100% 30.36 in 3.1 mi SSW 5.8 mph - N/A Fog Fog
1:00 AM 41.0 °F 36.4 °F 41.0 °F 100% 30.36 in 3.1 mi SSW 6.9 mph - N/A Fog Fog
1:30 AM 42.8 °F 40.1 °F 41.0 °F 93% 30.36 in 2.5 mi SSW 4.6 mph - N/A Fog Fog
2:00 AM 41 °F - 40 °F 97% 30.41 in 2 mi SSW 4.5 mph - - Fog Patches of Fog
2:00 AM 41.0 °F 37.1 °F 39.2 °F 93% 30.36 in 2.2 mi SW 5.8 mph - N/A Fog Fog
2:30 AM 41.0 °F 38.0 °F 39.2 °F 93% 30.36 in 2.2 mi SSW 4.6 mph - N/A Fog Fog
3:00 AM 39.2 °F 35.9 °F 39.2 °F 100% 30.36 in 1.9 mi SSW 4.6 mph - N/A Fog Fog
3:30 AM 41.0 °F 38.0 °F 39.2 °F 93% 30.36 in 1.9 mi SSW 4.6 mph - N/A Fog Fog
4:00 AM 39.2 °F 35.0 °F 37.4 °F 93% 30.36 in 1.6 mi SSW 5.8 mph - N/A Fog Fog
4:30 AM 39.2 °F 37.0 °F 39.2 °F 100% 30.36 in 1.6 mi South 3.5 mph - N/A Fog Fog
5:00 AM 37.4 °F 34.9 °F 37.4 °F 100% 30.36 in 2.8 mi SSW 3.5 mph - N/A Fog Fog
5:30 AM 39.2 °F 35.0 °F 39.2 °F 100% 30.36 in 2.8 mi SW 5.8 mph - N/A   Mist
6:00 AM 39.2 °F 35.9 °F 37.4 °F 93% 30.36 in 2.5 mi SSW 4.6 mph - N/A   Mist
6:30 AM 39.2 °F 37.0 °F 37.4 °F 93% 30.36 in 2.5 mi SSW 3.5 mph - N/A   Mist
7:00 AM 39.2 °F - 37.4 °F 93% 30.33 in 2.5 mi South 2.3 mph - N/A   Mist
7:30 AM 37.4 °F 33.8 °F 35.6 °F 93% 30.36 in 1.9 mi West 4.6 mph - N/A   Partly Cloudy
7:47 AM 37.4 °F 34.9 °F 37.4 °F 100% 30.36 in 1.9 mi SW 3.5 mph - N/A Fog Scattered Clouds
8:00 AM 37 °F - 37 °F 98% 30.41 in 0 mi West 4.5 mph - - Fog Patches of Fog
8:00 AM 37.4 °F 33.8 °F 35.6 °F 93% 30.36 in 1.2 mi WSW 4.6 mph - N/A Fog Patches of Fog
8:10 AM 37.4 °F 33.8 °F 35.6 °F 93% 30.36 in 0.4 mi SW 4.6 mph - N/A Fog Patches of Fog
8:18 AM 37.4 °F 33.8 °F 35.6 °F 93% 30.36 in 0.2 mi WSW 4.6 mph - N/A Fog Patches of Fog
8:30 AM 37.4 °F 33.8 °F 35.6 °F 93% 30.36 in 0.1 mi SW 4.6 mph - N/A Fog Fog
8:31 AM 35.6 °F 32.8 °F 35.6 °F 100% 30.36 in 0.2 mi West 3.5 mph - N/A Fog Fog
8:40 AM 37.4 °F 34.9 °F 35.6 °F 93% 30.36 in 0.1 mi West 3.5 mph - N/A Fog Fog
8:47 AM 37.4 °F - 35.6 °F 93% 30.36 in 0.1 mi West 2.3 mph - N/A Fog Fog
8:50 AM 37.4 °F - 35.6 °F 93% 30.36 in 0.1 mi West 2.3 mph - N/A Fog Fog
9:00 AM 37.4 °F - 35.6 °F 93% 30.36 in 0.2 mi West 2.3 mph - N/A Fog Fog
9:06 AM 37.4 °F - 37.4 °F 100% 30.36 in 0.2 mi Variable 1.2 mph - N/A Fog Fog
9:13 AM 37.4 °F - 37.4 °F 100% 30.36 in 0.1 mi Variable 1.2 mph - N/A Fog Fog
9:22 AM 37.4 °F - 37.4 °F 100% 30.36 in 0.1 mi Variable 1.2 mph - N/A Fog Fog
9:30 AM 37.4 °F - 37.4 °F 100% 30.36 in 0.1 mi Variable 2.3 mph - N/A Fog Fog
10:00 AM 39.2 °F - 37.4 °F 93% 30.36 in 0.2 mi Variable 2.3 mph - N/A Fog Fog
10:30 AM 39.2 °F - 39.2 °F 100% 30.36 in 0.2 mi Variable 2.3 mph - N/A Fog Fog
10:31 AM 41.0 °F - 39.2 °F 93% 30.36 in 0.2 mi Variable 1.2 mph - N/A Fog Fog
10:49 AM 41.0 °F - 41.0 °F 100% 30.36 in 0.1 mi Variable 2.3 mph - N/A Fog Fog
11:00 AM 41.0 °F - 41.0 °F 100% 30.36 in 0.1 mi Variable 2.3 mph - N/A Fog Fog
11:12 AM 41.0 °F - 41.0 °F 100% 30.36 in 0.1 mi Variable 1.2 mph - N/A Fog Fog
11:18 AM 41.0 °F - 41.0 °F 100% 30.36 in 0.1 mi Variable 2.3 mph - N/A Fog Fog
11:30 AM 42.8 °F - 41.0 °F 93% 30.36 in 0.1 mi Variable 1.2 mph - N/A Fog Fog
11:44 AM 42.8 °F - 42.8 °F 100% 30.36 in 0.1 mi Variable 2.3 mph - N/A Fog Fog
12:00 PM 42.8 °F - 42.8 °F 100% 30.36 in 0.1 mi Variable 2.3 mph - N/A Fog Fog
12:03 PM 42.8 °F - 42.8 °F 100% 30.36 in 0.1 mi Variable 2.3 mph - N/A Fog Fog
12:12 PM 42.8 °F - 42.8 °F 100% 30.36 in 0.1 mi Variable 2.3 mph - N/A Fog Fog
12:20 PM 42.8 °F - 42.8 °F 100% 30.36 in 0.1 mi Variable 2.3 mph - N/A Fog Fog
12:30 PM 42.8 °F - 42.8 °F 100% 30.36 in 0.1 mi Variable 2.3 mph - N/A Fog Fog
12:31 PM 42.8 °F - 42.8 °F 100% 30.36 in 0.1 mi Variable 2.3 mph - N/A Fog Fog
12:52 PM 44.6 °F - 42.8 °F 93% 30.36 in 0.2 mi Variable 2.3 mph - N/A Fog Fog
1:00 PM 44.6 °F - 42.8 °F 93% 30.36 in 0.2 mi Variable 2.3 mph - N/A Fog Fog
1:06 PM 44.6 °F - 44.6 °F 100% 30.36 in 0.4 mi Variable 2.3 mph - N/A Fog Fog
1:30 PM 44.6 °F - 44.6 °F 100% 30.36 in 0.6 mi Variable 2.3 mph - N/A Fog Fog
1:34 PM 44.6 °F - 44.6 °F 100% 30.36 in 0.9 mi Variable 2.3 mph - N/A Fog Patches of Fog
2:00 PM 45 °F - 45 °F 99% 30.39 in 1 mi 2.2 mph - - Fog Light Fog
2:00 PM 44.6 °F - 44.6 °F 100% 30.36 in 1.1 mi Variable 1.2 mph - N/A   Mostly Cloudy
2:30 PM 46.4 °F - 44.6 °F 93% 30.33 in 1.4 mi Variable 1.2 mph - N/A   Mostly Cloudy
3:00 PM 46.4 °F - 46.4 °F 100% 30.33 in - Variable 2.3 mph - N/A   Mostly Cloudy
3:06 PM 48.2 °F - 44.6 °F 87% 30.33 in 2.2 mi Variable 2.3 mph - N/A   Mostly Cloudy
3:30 PM 48.2 °F - 46.4 °F 93% 30.33 in 2.5 mi NNW 2.3 mph - N/A   Mostly Cloudy
3:47 PM 48.2 °F - 46.4 °F 93% 30.33 in 2.5 mi North 3.5 mph - N/A   Scattered Clouds
4:00 PM 48.2 °F - 46.4 °F 93% 30.33 in 2.5 mi North 3.5 mph - N/A   Partly Cloudy
4:30 PM 48.2 °F - 44.6 °F 87% 30.33 in - NNE 4.6 mph - N/A   Mostly Cloudy
4:37 PM 46.4 °F 44.3 °F 44.6 °F 93% 30.33 in 1.6 mi North 4.6 mph - N/A   Mostly Cloudy
5:00 PM 46.4 °F 44.3 °F 46.4 °F 100% 30.33 in 0.9 mi NNE 4.6 mph - N/A   Mostly Cloudy
5:09 PM 46.4 °F 44.3 °F 46.4 °F 100% 30.33 in 0.9 mi North 4.6 mph - N/A   Mostly Cloudy
5:22 PM 48.2 °F - 46.4 °F 93% 30.33 in 1.6 mi NNE 4.6 mph - N/A   Overcast
5:30 PM 48.2 °F - 46.4 °F 93% 30.33 in 1.6 mi North 4.6 mph - N/A   Overcast
6:00 PM 46.4 °F 44.3 °F 44.6 °F 93% 30.33 in 1.2 mi North 4.6 mph - N/A   Overcast
6:06 PM 46.4 °F 45.2 °F 44.6 °F 93% 30.33 in 1.2 mi North 3.5 mph - N/A   Overcast
6:14 PM 46.4 °F 45.2 °F 44.6 °F 93% 30.33 in 1.2 mi NNW 3.5 mph - N/A Fog Patches of Fog
6:30 PM 46.4 °F 45.2 °F 44.6 °F 93% 30.33 in 1.2 mi North 3.5 mph - N/A Fog Patches of Fog
7:00 PM 46.4 °F 45.2 °F 44.6 °F 93% 30.33 in 1.2 mi North 3.5 mph - N/A Fog Patches of Fog
7:30 PM 46.4 °F 45.2 °F 44.6 °F 93% 30.30 in 1.1 mi NNE 3.5 mph - N/A Fog Patches of Fog
8:00 PM 46.4 °F - 46.4 °F 100% 30.30 in 1.2 mi Variable 2.3 mph - N/A Fog Patches of Fog
8:15 PM 46.4 °F - 46.4 °F 100% 30.30 in 1.1 mi Variable 2.3 mph - N/A Fog Patches of Fog
8:30 PM 46.4 °F 45.2 °F 44.6 °F 93% 30.30 in 0.6 mi North 3.5 mph - N/A   Overcast
8:34 PM 46.4 °F - 44.6 °F 93% 30.30 in 0.7 mi Variable 2.3 mph - N/A Fog Patches of Fog
8:49 PM 46.4 °F - 44.6 °F 93% 30.30 in 0.7 mi Variable 2.3 mph - N/A Fog Patches of Fog
9:00 PM 46.4 °F - 44.6 °F 93% 30.30 in 0.6 mi Variable 2.3 mph - N/A   Overcast
9:17 PM 46.4 °F - 44.6 °F 93% 30.30 in 0.4 mi Variable 2.3 mph - N/A   Overcast
9:30 PM 46.4 °F - 44.6 °F 93% 30.30 in 0.4 mi North 2.3 mph - N/A   Unknown
10:00 PM 44.6 °F 43.1 °F 44.6 °F 100% 30.30 in 0.7 mi North 3.5 mph - N/A Fog Patches of Fog
10:12 PM 44.6 °F 42.2 °F 44.6 °F 100% 30.30 in 0.7 mi North 4.6 mph - N/A Fog Patches of Fog
10:21 PM 44.6 °F 43.1 °F 44.6 °F 100% 30.30 in 0.9 mi NNE 3.5 mph - N/A Fog Patches of Fog
10:30 PM 44.6 °F 43.1 °F 44.6 °F 100% 30.30 in 1.1 mi NNE 3.5 mph - N/A Fog Patches of Fog
10:38 PM 44.6 °F - 44.6 °F 100% 30.30 in 1.1 mi NE 2.3 mph - N/A Fog Patches of Fog
11:00 PM 44.6 °F 43.1 °F 44.6 °F 100% 30.30 in 1.1 mi NNE 3.5 mph - N/A Fog Patches of Fog
11:12 PM 44.6 °F 43.1 °F 44.6 °F 100% 30.30 in 0.9 mi ENE 3.5 mph - N/A Fog Patches of Fog
11:18 PM 44.6 °F 43.1 °F 44.6 °F 100% 30.30 in 0.9 mi ENE 3.5 mph - N/A Fog Patches of Fog
11:23 PM 44.6 °F 43.1 °F 44.6 °F 100% 30.30 in 0.9 mi ENE 3.5 mph - N/A Fog Patches of Fog
11:30 PM 44.6 °F 43.1 °F 44.6 °F 100% 30.30 in 0.9 mi ENE 3.5 mph - N/A Fog Patches of Fog
11:38 PM 44.6 °F 42.2 °F 44.6 °F 100% 30.30 in 1.2 mi East 4.6 mph - N/A Fog Overcast
11:46 PM 44.6 °F 41.4 °F 44.6 °F 100% 30.27 in 1.6 mi East 5.8 mph - N/A Fog Mist
11:54 PM 44.6 °F 42.2 °F 44.6 °F 100% 30.27 in 1.6 mi East 4.6 mph - N/A   Overcast